Regional Weather Roundup
Issued by NWS Upton, NY

Current Version | Previous Version | Text Only | Print | Product List | Glossary Off
Versions: 1 2 3 4 5 6 7 8 9 10 11 12 13 14 15 16 17 18 19 20 21 22 23 24 25 26 27
000 ASUS41 KOKX 261804 RWROKX REGIONAL WEATHER ROUNDUP NATIONAL WEATHER SERVICE NEW YORK NY 200 PM EDT THU MAY 26 2016 NOTE: "FAIR" INDICATES FEW OR NO CLOUDS BELOW 12,000 FEET WITH NO SIGNIFICANT WEATHER AND/OR OBSTRUCTIONS TO VISIBILITY. NYZ071-072-176-178-NJZ106-104-261900- NEW YORK CITY METRO AREA CITY SKY/WX TMP DP RH WIND PRES REMARKS CENTRAL PARK SUNNY 89 48 24 VRB5 30.07F LAGUARDIA APRT PTSUNNY 91 53 27 SW10 30.04F KENNEDY INTL PTSUNNY 82 56 40 S12 30.07F NEWARK/LIBERTY PTSUNNY 91 43 18 SW9 30.04F BRNX BOT. GARD N/A 90 43 19 S3 30.04F TETERBORO SUNNY 91 43 18 SW12G21 30.02F $$ NYZ177-179-078>081-261900- LONG ISLAND NEW YORK CITY SKY/WX TMP DP RH WIND PRES REMARKS FARMINGDALE SUNNY 84 57 39 S12 30.07F ISLIP PTSUNNY 83 55 38 S10 30.07F SHIRLEY SUNNY 82 54 37 S10 30.08F RIVERHEAD N/A 86 57 37 W1 30.05F WESTHAMPTON SUNNY N/A N/A N/A S12 30.09F EAST HAMPTON FAIR 81 52 36 S7 30.08F MONTAUK POINT N/A 75 60 59 VRB3 30.09F $$ NYZ052-065-067-261900- HUDSON VALLEY CITY SKY/WX TMP DP RH WIND PRES REMARKS WHITE PLAINS MOSUNNY 86 54 33 SE9 30.05F NEWBURGH MOSUNNY 86 55 35 CALM 30.06F MONTGOMERY PTSUNNY 87 56 34 CALM 30.04F POUGHKEEPSIE MOSUNNY 88 57 34 S3 30.03F ALBANY CLOUDY 84 58 40 CALM 30.05F $$ NJZ001-105-106-008-010-013-015-019>022-104-261900- NEW JERSEY CITY SKY/WX TMP DP RH WIND PRES REMARKS NEWARK/LIBERTY PTSUNNY 91 43 18 SW9 30.04F TETERBORO SUNNY 91 43 18 SW12G21 30.02F CALDWELL SUNNY 90 47 22 VRB6 30.04F MORRISTOWN SUNNY 90 50 25 W8G17 30.05F SOMERVILLE SUNNY 88 51 28 W8 30.04F SUSSEX MOSUNNY 87 50 27 W6 30.06F ANDOVER N/A 87 51 28 CALM 30.06F TRENTON SUNNY 88 47 24 W10 30.06F MILLVILLE SUNNY 87 49 26 VRB6 30.08F ATLANTIC CITY SUNNY 89 54 30 S15 30.07F WRIGHTSTOWN NOT AVBL TOMS RIVER SUNNY 91 48 22 S10 30.05F BELMAR SUNNY 87 56 34 SE9G17 30.07F $$ PAZ047>061-062-071-261900- EASTERN PENNSYLVANIA CITY SKY/WX TMP DP RH WIND PRES REMARKS PHILADELPHIA PTSUNNY 88 51 28 SW10 30.07F ALLENTOWN MOSUNNY 88 53 30 VRB7 30.06F SCRANTON SUNNY 87 55 33 SW12G17 30.05F $$ CTZ002-004>006-009-010-012-RIZ004-006-007-MAZ004-011-015-261900- SOUTHERN NEW ENGLAND IN CT CITY SKY/WX TMP DP RH WIND PRES REMARKS BRADLEY INTL PTSUNNY 87 57 35 CALM 30.03F HARTFORD MOSUNNY 91 56 30 SW9 30.03F DANBURY SUNNY 86 55 34 MISG 30.07F WTRBRY/OXFORD NOT AVBL BRIDGEPORT SUNNY 80 57 45 E9 30.06F MERIDEN CLOUDY 86 54 33 S9 30.05F NEW HAVEN MOSUNNY 85 58 39 SE7 30.06F CHESTER FAIR 86 54 32 SE9G16 30.08F GROTON MOSUNNY 77 60 55 S6 30.07F WILLIMANTIC PTSUNNY 89 53 29 VRB7 30.05F IN RI CITY SKY/WX TMP DP RH WIND PRES REMARKS PROVIDENCE PTSUNNY 81 55 40 SE15 30.06F BLOCK ISLAND MOSUNNY 79 54 41 SW10 30.09F WESTERLY MOSUNNY 83 53 35 S10 30.08F IN MA CITY SKY/WX TMP DP RH WIND PRES REMARKS BOSTON PTSUNNY 73 55 53 E15 30.06F WORCESTER CLOUDY 83 54 36 W12 30.09F WESTFIELD MOSUNNY 88 57 34 S12 30.03F PROVINCETOWN CLOUDY 79 58 48 E8 30.08F NANTUCKET CLOUDY 72 55 55 S7 30.09F $$ ANZ330-335-338-340-345-350-353-355-261900- COASTAL MARINE OBSERVATIONS STATION/POSITION TIME SKY/WX TEMP WIND PRES VSBY WAVE AIR SEA DIR/SP/G HT/PER (UTC) (F) (DEG/KT/KT) (MB) (MI) (FT/S) NY HARB ENTRANCE 1650 65 63 180/ 8/ 10 1018.3 2/ 9 20S FIRE ISLAND 1650 62 59 210/ 8/ 8 1018.6 2/ 7 GREAT SOUTH BAY 1700 68 68 230/ 6/ 8 N/A 23 SSW MONTAUK P 1750 60 58 220/ 6/ 6 1018.6 2/ 8 15 E BARNEGAT LI NOT AVBL HUDSON CANYON 1650 60 57 1019.9 2/ 7 KINGS POINT 1700 81 60 1017.7 EXECUTION ROCKS NOT AVBL CENTRAL LI SOUND 1700 69 50/ 2/ 4 N/A 0 EASTERN LI SOUND 1700 60 54 190/ 4/ 4 N/A ROBBINS REEF 1700 77 170/ 17/ 19 1017.2 $$ >>>>>>>>>>>>>>>>>>>>>>>>>>>> KEY <<<<<<<<<<<<<<<<<<<<<<<<<<< > < > SKY/WX - SKY CONDITION/PRESENT WEATHER < > TMP - TEMPERATURE IN FAHRENHEIT < > DP - DEWPOINT IN FAHRENHEIT < > RH - RELATIVE HUMIDITY IN PERCENT < > WIND - DIRECTION AND SPEED IN MPH < > PRES - MEAN SEA LEVEL PRESSURE IN INCHES OF HG < > WCI - WIND CHILL INDEX < > VSB - VISIBILITY IN MILES < > HX - HEAT INDEX < > TC - TEMPERATURE IN CELSIUS < > VRB - VARIABLE WIND DIRECTION < > < >>>>>>>>>>>>>>>>>>>>>>>>>>>> KEY <<<<<<<<<<<<<<<<<<<<<<<<<<<

USA.gov is the U.S. government's official web portal to all federal, state and local government web resources and services.